Location: Alphaba - Cockrum - Ingrams Mill Volunteer Fire Department Station 2
(34.7915°N, 89.7598°W)
Time: 08:40:21
(UTC+00:00)

OAO 2 Rocket - Pass Details

Date: 11 December 2025
Orbit: 668 x 734 km, 35.0° (Epoch: 24 January)

Event Time Altitude Azimuth Distance (km) Brightness Sun altitude
Exits shadow 12:04:52 10° 261° (W) 2,243 5.4 -10.5°
Reaches altitude 10° 12:04:58 10° 261° (W) 2,208 5.4 -10.5°
Maximum altitude 12:10:10 88° 172° (S) 719 3.4 -9.5°
Drops below altitude 10° 12:15:17 10° 84° (E) 2,169 7.0 -8.5°
Sets 12:17:40 0° 84° (E) 3,077 7.9 -8.1°
